FW4237 Weather Reports


Display with metric or nautical units.
time (UTC)temp
F
wind
direction
speed
MPH
gust
MPH
rain 1hr
in
rain 24hr
in
rain mn
in
humidity
%
barometer
mb
20260505003603 60 313 0.0 0.0 0.00 0.00 0.00 76 1011.4
20260505002601 61 313 0.0 0.0 0.00 0.00 0.00 74 1011.1
20260505001557 62 313 1.0 1.0 0.00 0.00 0.00 72 1011.1
20260505000557 64 314 1.0 2.0 0.00 0.00 0.00 71 1011.1
20260504235557 66 313 0.0 0.0 0.00 0.00 0.00 67 1011.1
20260504234556 69 313 1.0 1.0 0.00 0.00 0.00 62 1011.1
20260504233555 71 313 1.0 1.0 0.00 0.00 0.00 58 1011.1
20260504232555 73 324 1.0 2.0 0.00 0.00 0.00 49 1011.1
20260504231554 74 308 0.0 0.0 0.00 0.00 0.00 48 1011.1
20260504230553 75 51 3.0 3.0 0.00 0.00 0.00 46 1011.1
20260504225549 75 259 2.0 2.0 0.00 0.00 0.00 46 1011.1
20260504224548 77 276 1.0 1.0 0.00 0.00 0.00 45 1011.1
20260504223548 76 273 1.0 1.0 0.00 0.00 0.00 44 1011.1
20260504222547 76 268 1.0 2.0 0.00 0.00 0.00 45 1011.1
20260504221547 78 266 1.0 2.0 0.00 0.00 0.00 45 1011.4
20260504220546 74 260 2.0 2.0 0.00 0.00 0.00 46 1011.4
20260504215545 75 274 0.0 1.0 0.00 0.00 0.00 46 1011.1
20260504214544 74 210 4.0 5.0 0.00 0.00 0.00 47 1011.4
20260504213543 74 237 3.0 3.0 0.00 0.00 0.00 47 1011.4
20260504212542 73 259 5.0 6.0 0.00 0.00 0.00 48 1011.4
20260504211542 74 289 3.0 5.0 0.00 0.00 0.00 46 1011.4
20260504210542 75 293 3.0 5.0 0.00 0.00 0.00 46 1011.1
20260504205542 73 257 5.0 6.0 0.00 0.00 0.00 47 1011.1
20260504204538 73 252 2.0 3.0 0.00 0.00 0.00 47 1011.1
20260504203534 74 271 2.0 3.0 0.00 0.00 0.00 45 1011.1
20260504202533 73 252 2.0 3.0 0.00 0.00 0.00 47 1011.4
20260504201533 74 290 4.0 6.0 0.00 0.00 0.00 42 1011.4
20260504200532 74 180 3.0 5.0 0.00 0.00 0.00 46 1011.4
20260504195531 75 255 3.0 5.0 0.00 0.00 0.00 44 1011.8
20260504194531 75 298 3.0 5.0 0.00 0.00 0.00 45 1011.4
20260504193529 74 196 4.0 7.0 0.00 0.00 0.00 45 1011.8
20260504192526 75 243 3.0 5.0 0.00 0.00 0.00 46 1011.8
20260504191521 74 113 4.0 5.0 0.00 0.00 0.00 44 1011.8
20260504190519 73 261 2.0 3.0 0.00 0.00 0.00 46 1012.1
20260504185518 73 186 3.0 7.0 0.00 0.00 0.00 46 1012.1
20260504184515 70 292 5.0 6.0 0.00 0.00 0.00 47 1012.1
20260504183514 71 270 3.0 5.0 0.00 0.00 0.00 49 1012.8
20260504182509 73 246 3.0 3.0 0.00 0.00 0.00 47 1012.8
20260504181509 71 285 2.0 2.0 0.00 0.00 0.00 47 1012.8
20260504180506 71 260 7.0 7.0 0.00 0.00 0.00 46 1012.8
20260504175501 73 226 5.0 6.0 0.00 0.00 0.00 45 1012.8
20260504174456 72 199 3.0 3.0 0.00 0.00 0.00 46 1012.8
20260504173455 72 254 7.0 9.0 0.00 0.00 0.00 44 1013.2
20260504172454 73 203 7.0 10.0 0.00 0.00 0.00 44 1013.2
20260504171454 73 282 5.0 7.0 0.00 0.00 0.00 44 1013.2
20260504170453 71 252 2.0 3.0 0.00 0.00 0.00 46 1013.2
20260504160442 68 308 1.0 1.0 0.00 0.00 0.00 46 1014.2
20260504150432 65 266 4.0 6.0 0.00 0.00 0.00 48 1014.9
20260504140423 62 264 3.0 3.0 0.00 0.00 0.00 53 1015.3
20260504130417 60 271 3.0 3.0 0.00 0.00 0.00 52 1014.9
20260504110345 45 304 0.0 0.0 0.00 0.00 0.00 84 1015.6
20260504100331 44 306 1.0 1.0 0.00 0.00 0.00 86 1015.6
20260504081308 45 305 0.0 0.0 0.00 0.00 0.00 88 1015.3
20260504080307 45 305 0.0 0.0 0.00 0.00 0.00 88 1015.3
20260504070252 46 305 0.0 0.0 0.00 0.00 0.00 86 1015.3
20260504060241 46 304 0.0 0.0 0.00 0.00 0.00 82 1015.6
20260504050229 44 301 0.0 0.0 0.00 0.00 0.00 84 1015.6
20260504045226 44 301 0.0 0.0 0.00 0.00 0.00 85 1015.3
20260504044222 43 301 0.0 0.0 0.00 0.00 0.00 83 1015.3
20260504043221 42 301 0.0 0.0 0.00 0.00 0.00 85 1015.3
20260504042221 42 301 0.0 0.0 0.00 0.00 0.00 83 1015.3
20260504041219 41 301 0.0 0.0 0.00 0.00 0.00 81 1015.3
20260504040219 41 301 0.0 0.0 0.00 0.00 0.00 79 1015.6
20260504035219 41 301 0.0 0.0 0.00 0.00 0.00 78 1015.3
20260504034219 41 301 0.0 1.0 0.00 0.00 0.00 80 1015.3
20260504033214 41 301 0.0 0.0 0.00 0.00 0.00 80 1015.6
20260504032214 41 301 0.0 0.0 0.00 0.00 0.00 77 1015.6
20260504031213 42 301 0.0 0.0 0.00 0.00 0.00 76 1015.6
20260504030212 41 301 0.0 1.0 0.00 0.00 0.00 78 1015.6
20260504025211 42 301 2.0 2.0 0.00 0.00 0.00 77 1015.6
20260504024210 42 299 0.0 0.0 0.00 0.00 0.00 76 1015.6
20260504023209 42 299 0.0 0.0 0.00 0.00 0.00 75 1015.3
20260504022208 42 299 0.0 0.0 0.00 0.00 0.00 74 1015.3
20260504021208 43 299 0.0 0.0 0.00 0.00 0.00 72 1015.3
20260504020207 44 299 1.0 1.0 0.00 0.00 0.00 72 1014.9
20260504015206 42 299 0.0 0.0 0.00 0.00 0.00 74 1014.9
20260504014205 44 299 2.0 2.0 0.00 0.00 0.00 71 1014.9
20260504013206 43 298 1.0 1.0 0.00 0.00 0.00 73 1014.6
20260504012200 44 298 0.0 0.0 0.00 0.00 0.00 70 1014.9
20260504011159 46 298 0.0 0.0 0.00 0.00 0.00 67 1014.6
20260504010157 46 299 1.0 1.0 0.00 0.00 0.00 66 1014.6
20260504005156 46 298 0.0 0.0 0.00 0.00 0.00 67 1014.6
20260504004151 46 298 0.0 0.0 0.00 0.00 0.00 67 1014.6